[[{"header":{"parameterUnit":"m.s-1","parameterCategory":1,"la1":30.2991,"la2":30.254,"lo1":-89.0895,"lo2":-89.0444,"dy":0.0017,"dx":0.0017,"nx":28,"ny":28,"refTime":"2024-02-26T09:00:00:Z","depth":0,"parameterNumber":2,"parameterNumberName":"U-component_of_WINDS"},"data":[0,0,0,0,0,0,0,0,0,0,0,0,0,0,0,0,0,0,0,0,0,0,0,0,0,0,0,0,0,0,0,0,0,0,0,0,0,0,0,0,0,0,0,0,0,0,0,0,0,0,0,0,0,0,0,0,0,0,-2.3466,-2.3467,0,-2.3567,-2.3568,-2.3569,-2.3551,-2.3549,-2.3547,-2.3545,-2.3651,-2.3655,-2.3659,0,0,0,0,0,0,0,0,0,0,0,0,0,-2.3258,-2.3262,-2.3465,-2.3467,-2.3468,-2.3566,-2.3568,-2.3569,-2.3551,-2.3549,-2.3547,-2.3544,-2.3649,-2.3654,-2.366,0,0,0,0,0,0,0,0,0,0,0,0,0,-2.3353,-2.3264,-2.3465,-2.3471,-2.3472,-2.3566,-2.3568,-2.357,-2.3551,-2.3549,-2.3546,-2.3543,-2.3647,-2.3654,-2.3661,-2.3756,0,0,-2.3681,-2.3684,0,0,0,0,0,0,0,0,-2.3348,-2.3361,-2.3469,-2.347,-2.3472,-2.3543,-2.3533,-2.3632,-2.3552,-2.3521,-2.3545,-2.3542,-2.3617,-2.3626,-2.3651,-2.3761,-2.3765,-2.3682,-2.3686,-2.3689,-2.3691,0,0,0,0,0,0,0,-2.3341,-2.3356,-2.3506,-2.347,-2.3473,-2.3469,-2.3479,-2.3552,-2.3583,-2.3524,-2.3523,-2.3535,-2.3618,-2.3645,-2.3653,-2.3767,-2.3681,-2.3687,-2.3692,-2.3694,-2.396,-2.3963,0,0,0,0,0,0,-2.3333,-2.3351,-2.3502,-2.3509,-2.3402,-2.3475,-2.3486,-2.3523,-2.3582,-2.3589,-2.3537,-2.3534,-2.3635,-2.3646,-2.3657,-2.3772,-2.3689,-2.3695,-2.3699,-2.3957,-2.3961,-2.3964,0,0,0,0,0,0,-2.3328,-2.3346,-2.3498,-2.3429,-2.3448,-2.3481,-2.3523,-2.3527,-2.3554,-2.3592,-2.3598,-2.3559,-2.3633,-2.3648,-2.3731,-2.3776,-2.3698,-2.3704,-2.3954,-2.3958,-2.3963,-2.4004,0,0,0,0,0,0,-2.3322,-2.3345,-2.3381,-2.343,-2.3452,-2.357,-2.3525,-2.3531,-2.3565,-2.3561,-2.3614,-2.362,-2.3632,-2.3721,-2.3738,-2.3784,-2.3709,-2.395,-2.3956,-2.3961,-2.3999,-2.4009,-2.4018,0,0,0,0,0,-2.3315,-2.3389,-2.3383,-2.3401,-2.3498,-2.3573,-2.3586,-2.3597,-2.3569,-2.3605,-2.363,-2.3619,-2.3769,-2.373,-2.3749,-2.3797,-2.3947,-2.3954,-2.3961,-2.3994,-2.4007,-2.4018,0,0,0,0,0,0,-2.3344,-2.3395,-2.3389,-2.3481,-2.3523,-2.357,-2.3616,-2.361,-2.3661,-2.3656,-2.3668,-2.368,-2.3765,-2.379,-2.3746,-2.3893,-2.3854,-2.3865,-2.3873,-2.3886,-2.3895,-2.3887,-2.3715,0,0,0,0,0,-2.3361,-2.3417,-2.3459,-2.3537,-2.3558,-2.3584,-2.3617,-2.3622,-2.3666,-2.3683,-2.3714,-2.3758,-2.3815,-2.3852,-2.3906,-2.4003,-2.4014,-2.4045,-2.4055,-2.4063,-2.4072,-2.4124,-2.4138,-2.3987,-2.3987,-2.3987,0,0,-2.3397,-2.3432,-2.3467,-2.3543,-2.3576,-2.3634,-2.3598,-2.3662,-2.3705,-2.3693,-2.3773,-2.3798,-2.3848,-2.3938,-2.3979,-2.3961,-2.4116,-2.4071,-2.4077,-2.4082,-2.4133,-2.4147,-2.416,-2.3991,-2.3991,-2.399,0,0,-2.3492,-2.3525,-2.3592,-2.3626,-2.3676,-2.3692,-2.3709,-2.3757,-2.3772,-2.3854,-2.3846,-2.3898,-2.3996,-2.4031,-2.4062,-2.4171,-2.4162,-2.4189,-2.424,-2.4291,-2.4303,-2.4313,-2.4352,-2.4365,-2.4198,-2.4198,-2.4198,0,-2.3531,-2.3617,-2.3628,-2.3692,-2.3726,-2.3717,-2.3786,-2.3818,-2.3884,-2.3908,-2.3886,-2.4009,-2.4041,-2.414,-2.4166,-2.4192,-2.4211,-2.4182,-2.43,-2.4311,-2.4321,-2.4358,-2.4372,-2.4201,-2.42,-2.42,-2.42,0,-2.3662,-2.3722,-2.3771,-2.3834,-2.3873,-2.394,-2.396,-2.3999,-2.4001,-2.4021,-2.4104,-2.4143,-2.4205,-2.4229,-2.4232,-2.4328,-2.4315,-2.4297,-2.4258,-2.4338,-2.4373,-2.4387,-2.4205,-2.4204,-2.4203,-2.4202,0,0,-2.3777,-2.3845,-2.3863,-2.3891,-2.3946,-2.3993,-2.4059,-2.4119,-2.4152,-2.4198,-2.4254,-2.4337,-2.4321,-2.4356,-2.4363,-2.4408,-2.4491,-2.4384,-2.4385,-2.4402,-2.4599,-2.4611,-2.4627,-2.4486,-2.4488,-2.4491,-2.4594,0,-2.3877,-2.3992,-2.4004,-2.4107,-2.4163,-2.4156,-2.4214,-2.4254,-2.4274,-2.4325,-2.4348,-2.4406,-2.438,-2.4401,-2.4446,-2.4471,-2.453,-2.4464,-2.4537,-2.454,-2.4524,-2.4645,-2.4659,-2.4755,-2.4608,-2.461,-2.4612,0,-2.4008,-2.4057,-2.4165,-2.4212,-2.4236,-2.4288,-2.4344,-2.4393,-2.4438,-2.445,-2.4489,-2.449,-2.4559,-2.4518,-2.4613,-2.4568,-2.4599,-2.4616,-2.462,-2.4626,-2.458,-2.4654,-2.4786,-2.4799,-2.4634,-2.4632,-2.463,0,-2.408,-2.4173,-2.425,-2.4275,-2.4332,-2.4368,-2.4393,-2.4436,-2.4472,-2.4521,-2.4545,-2.4602,-2.4633,-2.4678,-2.4694,-2.4663,-2.4788,-2.4749,-2.4799,-2.4799,-2.4825,-2.4823,-2.4962,-2.4847,-2.4847,-2.4846,-2.4846,0,-2.4189,-2.4256,-2.4283,-2.433,-2.4405,-2.4418,-2.4492,-2.4516,-2.4555,-2.4607,-2.4605,-2.4655,-2.4674,-2.4727,-2.4741,-2.4817,-2.4831,-2.4842,-2.4845,-2.4842,-2.484,-2.4861,-2.4855,-2.485,-2.4849,-2.4849,-2.4848,0,-2.4281,-2.4302,-2.4386,-2.4433,-2.4446,-2.4499,-2.454,-2.4586,-2.4606,-2.4672,-2.4688,-2.4719,-2.4781,-2.4803,-2.4878,-2.4887,-2.4975,-2.4973,-2.4959,-2.496,-2.5008,-2.5003,-2.5165,-2.5187,-2.5058,-2.506,-2.5061,0,-2.4349,-2.44,-2.4452,-2.4487,-2.4513,-2.4569,-2.4605,-2.4621,-2.4659,-2.4715,-2.4754,-2.4815,-2.4865,-2.4964,-2.4994,-2.5052,-2.505,-2.5103,-2.5059,-2.5054,-2.505,-2.5046,-2.5051,-2.5111,-2.5112,-2.5113,-2.5114,0,-2.4466,-2.4474,-2.4526,-2.4581,-2.4624,-2.4669,-2.4712,-2.4741,-2.4763,-2.4806,-2.4868,-2.4907,-2.4984,-2.5044,-2.5103,-2.513,-2.5126,-2.5128,-2.5143,-2.5139,-2.5129,-2.5134,-2.4981,-2.5124,-2.5123,-2.5122,-2.5122,-2.5121,-2.4548,-2.4593,-2.4636,-2.4694,-2.4728,-2.4769,-2.4814,-2.4839,-2.4892,-2.4955,-2.4961,-2.5029,-2.5074,-2.5152,-2.5182,-2.5236,-2.5221,-2.5243,-2.5248,-2.5252,-2.5256,-2.5121,-2.5247,-2.5247,-2.5246,-2.5246,-2.5246,0,-2.4664,-2.4692,-2.4745,-2.4805,-2.4851,-2.4843,-2.489,-2.4929,-2.4988,-2.503,-2.5079,-2.5151,-2.5211,-2.5245,-2.5304,-2.5341,-2.534,-2.5356,-2.5353,-2.5359,-2.5266,-2.5247,-2.5355,-2.5355,-2.5355,-2.5355,-2.5355,-2.5355,-2.473,-2.4805,-2.4819,-2.4911,-2.4939,-2.5004,-2.5032,-2.507,-2.5103,-2.5184,-2.5233,-2.5255,-2.5294,-2.5356,-2.541,-2.5419,-2.544,-2.5457,-2.5464,-2.5377,-2.5365,-2.5355,-2.5337,-2.5462,-2.5462,-2.5553,-2.5554,-2.5554]},{"header":{"parameterUnit":"m.s-1","parameterCategory":1,"la1":30.2991,"la2":30.254,"lo1":-89.0895,"lo2":-89.0444,"dy":0.0017,"dx":0.0017,"nx":28,"ny":28,"refTime":"2024-02-26T09:00:00:Z","depth":0,"parameterNumber":3,"parameterNumberName":"V-component_of_WINDS"},"data":[0,0,0,0,0,0,0,0,0,0,0,0,0,0,0,0,0,0,0,0,0,0,0,0,0,0,0,0,0,0,0,0,0,0,0,0,0,0,0,0,0,0,0,0,0,0,0,0,0,0,0,0,0,0,0,0,0,0,2.5277,2.5277,0,2.5226,2.5225,2.5225,2.5165,2.5164,2.5163,2.5162,2.5109,2.5109,2.5108,0,0,0,0,0,0,0,0,0,0,0,0,0,2.5326,2.5325,2.5277,2.5277,2.5276,2.5226,2.5225,2.5225,2.5165,2.5164,2.5163,2.5162,2.5109,2.5109,2.5108,0,0,0,0,0,0,0,0,0,0,0,0,0,2.5293,2.5325,2.5278,2.524,2.5236,2.5226,2.5225,2.5224,2.5165,2.5164,2.5162,2.5161,2.511,2.5109,2.5108,2.513,0,0,2.5105,2.5105,0,0,0,0,0,0,0,0,2.5295,2.5291,2.5246,2.5243,2.5238,2.52,2.5223,2.5193,2.5165,2.5192,2.5162,2.516,2.5141,2.5137,2.513,2.5128,2.5125,2.5105,2.5105,2.5104,2.5104,0,0,0,0,0,0,0,2.5297,2.5293,2.5257,2.5246,2.5241,2.5227,2.5221,2.5217,2.5175,2.519,2.5185,2.518,2.5138,2.5131,2.5129,2.5125,2.5105,2.5105,2.5104,2.5104,2.514,2.5141,0,0,0,0,0,0,2.5305,2.5295,2.5259,2.5255,2.5264,2.5227,2.522,2.5214,2.5175,2.5167,2.5181,2.5177,2.5134,2.513,2.5127,2.5151,2.5105,2.5104,2.5103,2.5139,2.514,2.5142,0,0,0,0,0,0,2.5306,2.5302,2.5261,2.5274,2.5268,2.5228,2.5221,2.5214,2.5207,2.5168,2.516,2.5182,2.5132,2.5128,2.513,2.5149,2.5103,2.5103,2.5137,2.5139,2.5141,2.52,0,0,0,0,0,0,2.5308,2.5303,2.531,2.5275,2.5267,2.5265,2.5222,2.5214,2.5206,2.52,2.5167,2.516,2.5131,2.5132,2.513,2.5147,2.5102,2.5135,2.5138,2.514,2.5197,2.5204,2.5211,0,0,0,0,0,2.531,2.5328,2.5311,2.5307,2.5276,2.5266,2.5262,2.5228,2.5207,2.5215,2.5191,2.5161,2.5147,2.5133,2.5129,2.5147,2.5134,2.5137,2.514,2.5193,2.5203,2.5211,0,0,0,0,0,0,2.5366,2.5323,2.5303,2.5311,2.5293,2.5256,2.5264,2.5239,2.5226,2.5221,2.518,2.5173,2.5181,2.5164,2.5148,2.5167,2.5136,2.5139,2.5178,2.5186,2.5194,2.5197,2.5101,0,0,0,0,0,2.538,2.5376,2.5338,2.5349,2.534,2.5304,2.5299,2.5275,2.5254,2.5246,2.5221,2.5203,2.5194,2.5189,2.5179,2.5194,2.5187,2.5205,2.5212,2.5218,2.5221,2.5229,2.5237,2.5153,2.5153,2.5153,0,0,2.5408,2.5384,2.5383,2.5359,2.5342,2.5339,2.5298,2.5296,2.5293,2.5245,2.5246,2.5228,2.5205,2.5214,2.5217,2.52,2.5243,2.5222,2.5227,2.5227,2.5234,2.5242,2.5249,2.5155,2.5155,2.5154,0,0,2.5457,2.5438,2.5445,2.543,2.5405,2.5381,2.5383,2.5351,2.5337,2.5337,2.5302,2.5299,2.5285,2.527,2.5261,2.5308,2.5281,2.5306,2.5343,2.5352,2.5359,2.5364,2.5382,2.5389,2.5309,2.5309,2.5309,0,2.5494,2.5488,2.5452,2.5453,2.5444,2.5402,2.541,2.5397,2.537,2.5365,2.5347,2.5331,2.5312,2.5318,2.533,2.5323,2.5325,2.5309,2.536,2.5366,2.5371,2.5387,2.5394,2.5312,2.5312,2.5312,2.5311,0,2.5536,2.5532,2.5541,2.5518,2.551,2.5515,2.5481,2.5478,2.5455,2.5434,2.5436,2.5412,2.5398,2.5398,2.5375,2.5401,2.5392,2.5368,2.5336,2.5383,2.5398,2.5403,2.5317,2.5316,2.5315,2.5314,0,0,2.5617,2.5576,2.558,2.5569,2.554,2.5537,2.5541,2.5527,2.5526,2.5509,2.5512,2.5503,2.5481,2.5471,2.5446,2.5454,2.5495,2.5429,2.5428,2.5443,2.5524,2.5542,2.555,2.5477,2.5478,2.5479,2.5526,0,2.5661,2.5664,2.5634,2.5646,2.5643,2.5604,2.5607,2.559,2.5571,2.5567,2.5545,2.554,2.5511,2.5505,2.5511,2.5488,2.551,2.5484,2.548,2.548,2.5487,2.5558,2.5577,2.5622,2.5532,2.5533,2.5533,0,2.5712,2.57,2.5712,2.5684,2.5682,2.5686,2.5672,2.5668,2.5649,2.5634,2.5624,2.5597,2.56,2.557,2.5574,2.5557,2.5554,2.5543,2.5544,2.5542,2.5509,2.5558,2.5636,2.5643,2.5542,2.5541,2.5541,0,2.5772,2.5758,2.5764,2.5756,2.5724,2.5728,2.5715,2.5694,2.5689,2.5677,2.5673,2.5662,2.5656,2.5648,2.562,2.56,2.5628,2.5595,2.5616,2.5617,2.5623,2.5623,2.5702,2.5621,2.5621,2.5621,2.5621,0,2.5824,2.5833,2.579,2.5794,2.5804,2.5769,2.578,2.5763,2.5746,2.5746,2.5712,2.5713,2.5675,2.5672,2.565,2.5658,2.5655,2.5644,2.5638,2.5647,2.5649,2.5644,2.564,2.5623,2.5622,2.5622,2.5621,0,2.5891,2.5863,2.5867,2.5837,2.583,2.5839,2.5813,2.5816,2.5796,2.5797,2.5795,2.5763,2.5759,2.5729,2.5718,2.5703,2.5719,2.5706,2.5726,2.5722,2.5745,2.5744,2.5824,2.5833,2.5746,2.5747,2.5748,0,2.5926,2.5932,2.5904,2.5902,2.5891,2.5888,2.5883,2.585,2.5846,2.5826,2.5832,2.5825,2.5817,2.5812,2.5788,2.578,2.5767,2.5796,2.5766,2.5776,2.5769,2.5769,2.577,2.5802,2.5804,2.5804,2.5805,0,2.5992,2.5979,2.5972,2.5962,2.5957,2.5947,2.5935,2.5936,2.59,2.5898,2.5893,2.5887,2.5877,2.5871,2.5859,2.5846,2.582,2.5815,2.582,2.5829,2.5841,2.5836,2.5744,2.5813,2.5812,2.5812,2.5811,2.5811,2.6045,2.6049,2.6031,2.6025,2.6013,2.6004,2.6006,2.5986,2.5982,2.5971,2.5952,2.5951,2.5934,2.5915,2.5905,2.5904,2.5889,2.5895,2.5897,2.5899,2.5904,2.5841,2.5901,2.5901,2.5901,2.5901,2.59,0,2.6109,2.6096,2.6092,2.6077,2.6074,2.6051,2.6037,2.6036,2.6035,2.6021,2.6015,2.6011,2.6006,2.5983,2.5975,2.5979,2.5967,2.5978,2.5978,2.5975,2.5918,2.5915,2.5988,2.5988,2.5988,2.5988,2.5988,2.5988,2.6143,2.615,2.6135,2.6136,2.6123,2.6121,2.6116,2.6108,2.6097,2.6094,2.6089,2.6075,2.6058,2.6049,2.6044,2.6037,2.6036,2.6051,2.6041,2.5988,2.5979,2.5971,2.5968,2.6051,2.6051,2.6099,2.6099,2.6099]}]]